星链-31483 (STARLINK-31483 )

导读 | 星芒AI

STARLINK-31483 是 SpaceX Starlink 项目中的一颗低轨通信卫星,属于其第四批卫星发射任务的一部分。该卫星于2023年发射,旨在为全球用户提供高速互联网服务。它运行在约550公里高的近地轨道,采用先进通信技术,支持宽带数据传输。Starlink 卫星群通过减少地面基站依赖,为偏远地区带来网络覆盖。STARLINK-31483 的部署有助于增强 Starlink 网络的稳定性和容量。

基本信息
目录编号:
59411
目录名称:
STARLINK-31483
国际标识:
2024-064P
轨道中心:
EARTH
卫星名称:
星链-31483
卫星全名:
星链-31483 (STARLINK-31483 )
卫星状态:
在轨 (已飞行624 天)
发射日期:
2024-04-05 UTC
国别 :
美国 (US)
星等 :
--
轨道信息
数据来源 国际轨道数据
星历时间: 2025-12-20T01:12:33+0800
7小时前
查看轨道信息
半长轴: 6861.101km
偏心率: 0.000159
轨道倾角: 43.001°
近地点辐角 261.915°
升交点赤经 147.929°
平近点角 98.152°
近地点: 481.873km
远地点: 484.055km
周期: 94.265分钟
每日圈数: 15.276085
详细信息
固有亮度:
5
最大亮度:
0.3
卫星平台:
Starlink v2.0 mini
覆盖范围:
全球
运营商:
太空探索技术公司
运营商所在国:
美国
制造商(研发单位):
太空探索技术公司
制造商所在国:
美国
使用方式:
暂无
卫星简介
星链(Starlink)计划是由太空探索技术公司(SpaceX)提出的一个巨型低轨卫星互联网星座项目,计划在2019年至2024年间在太空搭建由约1.2万颗卫星组成的“星链”网络,其中1584颗将部署在地球上空550千米处的近地轨道,并从2020年开始工作。该卫星仍在工作。
2D轨道图
3D轨道图
轨道高度分析图
轨道倾角分析图
轨道综合分析图
查看轨道综合分析图